CW3313 Weather Reports


time (UTC)temp
C
wind
direction
speed
KPH
gust
KPH
rain 1hr
cm
rain 24hr
cm
rain mn
cm
humidity
%
barometer
mb
20260903073307 20 188 0.0 0.0 0.10 0.51 0.10 100 1014.1
20260903072804 20 188 0.0 0.0 0.10 0.51 0.10 100 1014.1
20260903072301 20 188 0.0 0.0 0.10 0.51 0.10 100 1014.1
20260903071758 20 188 0.0 0.0 0.10 0.51 0.10 100 1014.1
20260903071253 20 199 4.8 0.0 0.10 0.51 0.10 100 1014.1
20260903070751 20 316 4.8 4.8 0.10 0.51 0.10 100 1014.2
20260903070247 20 350 4.8 40.2 0.10 0.51 0.10 100 1014.2
20260903065745 21 353 4.8 40.2 0.10 0.51 0.10 100 1014.5
20260903065241 22 354 0.0 19.3 0.00 0.41 0.00 100 1014.9
20260903064739 22 355 0.0 0.0 0.00 0.41 0.00 100 1014.2
20260903064235 21 355 0.0 0.0 0.00 0.41 0.00 100 1013.9
20260903063733 21 355 0.0 0.0 0.00 0.41 0.00 100 1013.9
20260903063230 21 355 0.0 0.0 0.00 0.41 0.00 100 1014.2
20260903062728 22 355 0.0 0.0 0.00 0.41 0.00 100 1014.2
20260903062225 22 355 0.0 0.0 0.00 0.41 0.00 100 1013.9
20260903061722 21 355 0.0 0.0 0.00 0.41 0.00 100 1013.8
20260903061212 21 355 0.0 0.0 0.00 0.41 0.00 100 1013.8
20260903060710 22 355 0.0 0.0 0.00 0.41 0.00 100 1013.9
20260903060207 22 355 0.0 0.0 0.00 0.41 0.00 100 1013.9
20260903055622 22 355 0.0 0.0 0.00 0.41 0.00 100 1014.6
20260903055118 22 355 0.0 0.0 0.00 0.41 0.00 100 1014.2
20260903054616 21 355 0.0 0.0 0.00 0.41 0.00 100 1014.2
20260903054112 21 355 0.0 0.0 0.00 0.41 0.00 100 1014.2
20260903053610 21 355 0.0 0.0 0.00 0.41 0.00 100 1013.8
20260903053106 21 355 0.0 0.0 0.00 0.41 0.00 100 1013.8
20260903052603 21 355 0.0 0.0 0.00 0.41 0.00 100 1013.8
20260903052100 21 355 0.0 0.0 0.00 0.41 0.00 100 1013.9
20260903051536 21 355 0.0 0.0 0.00 0.41 0.00 100 1013.9
20260903051031 21 355 0.0 0.0 0.00 0.41 0.00 100 1013.8
20260903050529 21 355 0.0 0.0 0.00 0.41 0.00 100 1014.2
20260903050026 21 355 0.0 0.0 0.00 0.41 0.00 100 1014.2
20260903045524 21 355 0.0 0.0 0.00 0.41 0.00 100 1013.8
20260903045020 21 355 0.0 0.0 0.00 0.41 0.00 100 1013.8
20260903044518 21 355 0.0 0.0 0.00 0.41 0.00 100 1013.8
20260903043952 21 355 0.0 0.0 0.00 0.41 0.00 100 1013.8
20260903043450 21 355 0.0 0.0 0.00 0.41 0.00 100 1013.8
20260903042946 21 355 0.0 0.0 0.00 0.41 0.00 100 1013.8
20260903042340 21 355 0.0 0.0 0.13 0.41 0.00 100 1013.8
20260903041814 21 355 0.0 0.0 0.15 0.41 0.00 100 1013.7
20260903041312 21 355 0.0 0.0 0.18 0.41 0.00 100 1013.7
20260903040808 21 355 0.0 0.0 0.33 0.41 0.00 99 1014.1
20260903040306 21 355 0.0 0.0 0.33 0.41 0.00 99 1014.0
20260903035802 21 355 0.0 0.0 0.36 0.41 0.41 99 1013.7
20260903035259 21 355 0.0 0.0 0.36 0.41 0.41 99 1014.0
20260903034756 21 357 0.0 0.0 0.38 0.41 0.41 98 1013.7
20260903034253 21 355 1.6 0.0 0.41 0.41 0.41 98 1014.0
20260903033750 21 356 4.8 9.7 0.41 0.41 0.41 97 1014.0
20260903033247 21 352 6.4 30.6 0.41 0.41 0.41 97 1013.7
20260903032744 21 346 12.9 35.4 0.36 0.36 0.36 95 1015.0
20260903032214 21 346 11.3 35.4 0.28 0.28 0.28 96 1013.7
20260903031711 21 346 9.7 59.5 0.25 0.25 0.25 96 1014.0
20260903031147 21 348 9.7 59.5 0.18 0.18 0.18 95 1013.6
20260903030643 21 349 6.4 19.3 0.08 0.08 0.08 93 1013.6
20260903025313 24 347 8.0 43.5 0.05 0.05 0.05 85 1013.8
20260903024811 26 329 4.8 43.5 0.03 0.03 0.03 83 1013.9
20260903024308 26 257 3.2 19.3 0.00 0.00 0.00 85 1014.3
20260903023806 26 209 0.0 12.9 0.00 0.00 0.00 86 1013.2
20260903023302 26 200 0.0 0.0 0.00 0.00 0.00 86 1012.6
20260903022739 26 200 0.0 0.0 0.00 0.00 0.00 86 1012.2
20260903022234 26 200 0.0 0.0 0.00 0.00 0.00 86 1012.6
20260903021732 26 200 0.0 0.0 0.00 0.00 0.00 86 1012.2
20260903021229 26 200 0.0 0.0 0.00 0.00 0.00 86 1012.5
20260903020726 26 200 0.0 0.0 0.00 0.00 0.00 86 1012.8
20260903020221 26 200 0.0 0.0 0.00 0.00 0.00 86 1013.5
20260903015719 26 200 0.0 0.0 0.00 0.00 0.00 85 1013.5
20260903015216 26 200 0.0 0.0 0.00 0.00 0.00 85 1013.5
20260903014652 26 200 0.0 0.0 0.00 0.00 0.00 85 1013.5
20260903014148 26 200 0.0 0.0 0.00 0.00 0.00 85 1013.5
20260903013646 26 200 0.0 0.0 0.00 0.00 0.00 84 1013.5
20260903013143 26 200 0.0 0.0 0.00 0.00 0.00 84 1013.5
20260903012641 26 200 0.0 0.0 0.00 0.00 0.00 82 1013.5
20260903012137 27 200 0.0 0.0 0.00 0.00 0.00 82 1013.5
20260903011613 27 200 0.0 0.0 0.00 0.00 0.00 81 1013.4
20260903011109 27 200 0.0 0.0 0.00 0.00 0.00 81 1013.4
20260903010607 27 200 0.0 0.0 0.00 0.00 0.00 82 1013.1
20260903005558 27 200 0.0 0.0 0.00 0.00 0.00 81 1013.1
20260903005053 27 200 0.0 0.0 0.00 0.00 0.00 80 1013.1
20260903004551 27 200 0.0 0.0 0.00 0.00 0.00 80 1013.1
20260903004046 27 200 0.0 0.0 0.00 0.00 0.00 79 1013.1
20260903003544 27 200 0.0 0.0 0.00 0.00 0.00 79 1012.7
20260903003040 27 200 0.0 0.0 0.00 0.00 0.00 79 1012.7
20260903002538 27 200 0.0 0.0 0.00 0.00 0.00 78 1012.7
20260903002034 28 200 0.0 0.0 0.00 0.00 0.00 78 1012.7
20260903001510 28 200 0.0 0.0 0.00 0.00 0.00 78 1013.1
20260903000945 28 200 0.0 0.0 0.00 0.00 0.00 77 1013.1
20260903000443 28 200 0.0 0.0 0.00 0.00 0.00 76 1012.8
20260902235939 28 200 0.0 0.0 0.00 0.00 0.00 75 1012.8
20260902235436 29 200 0.0 0.0 0.00 0.00 0.00 74 1012.8
20260902234932 29 200 0.0 0.0 0.00 0.00 0.00 73 1012.8
20260902234408 29 198 0.0 0.0 0.00 0.00 0.00 73 1012.8
20260902233905 30 191 0.0 0.0 0.00 0.00 0.00 72 1012.8
20260902233402 30 182 0.0 0.0 0.00 0.00 0.00 72 1012.8
20260902232754 30 176 0.0 0.0 0.00 0.00 0.00 71 1012.8
20260902232251 30 174 0.0 0.0 0.00 0.00 0.00 70 1012.8
20260902231747 30 175 0.0 0.0 0.00 0.00 0.00 70 1012.8
20260902231245 30 182 0.0 0.0 0.00 0.00 0.00 70 1012.9
20260902230733 30 176 0.0 6.4 0.00 0.00 0.00 70 1012.9
20260902230230 30 172 0.0 6.4 0.00 0.00 0.00 70 1012.9
20260902225705 31 144 0.0 3.2 0.00 0.00 0.00 71 1012.9
20260902225141 31 129 0.0 3.2 0.00 0.00 0.00 70 1012.9
20260902224637 31 124 0.0 3.2 0.00 0.00 0.00 70 1012.9
20260902224135 31 147 0.0 3.2 0.00 0.00 0.00 70 1012.9
20260902223625 31 158 0.0 8.0 0.00 0.00 0.00 69 1012.9
20260902223122 31 149 0.0 4.8 0.00 0.00 0.00 71 1012.9
20260902222557 31 125 0.0 6.4 0.00 0.00 0.00 69 1012.9
20260902222055 31 108 0.0 4.8 0.00 0.00 0.00 69 1012.6
20260902221552 31 123 0.0 1.6 0.00 0.00 0.00 68 1012.9
20260902221004 31 142 0.0 3.2 0.00 0.00 0.00 67 1012.9
20260902220501 31 175 0.0 4.8 0.00 0.00 0.00 66 1012.9
20260902215937 31 189 0.0 4.8 0.00 0.00 0.00 66 1012.9
20260902215432 32 187 0.0 4.8 0.00 0.00 0.00 64 1012.9
20260902214908 32 186 0.0 8.0 0.00 0.00 0.00 65 1012.9
20260902214404 32 194 0.0 8.0 0.00 0.00 0.00 63 1012.9
20260902213840 32 201 0.0 8.0 0.00 0.00 0.00 64 1012.9
20260902213337 32 202 0.0 8.0 0.00 0.00 0.00 63 1012.9
20260902212835 32 207 0.0 8.0 0.00 0.00 0.00 62 1012.9
20260902212331 32 204 0.0 9.7 0.00 0.00 0.00 64 1013.0
20260902211828 32 194 0.0 4.8 0.00 0.00 0.00 64 1013.0
20260902211324 32 199 0.0 9.7 0.00 0.00 0.00 64 1013.3
20260902210823 32 181 0.0 9.7 0.00 0.00 0.00 64 1013.0
20260902210258 32 187 0.0 4.8 0.00 0.00 0.00 63 1013.0
20260902205755 32 207 0.0 3.2 0.00 0.00 0.00 63 1013.0
20260902205251 32 230 0.0 3.2 0.00 0.00 0.00 64 1013.3
20260902204749 32 271 0.0 3.2 0.00 0.00 0.00 64 1013.3
20260902204240 33 316 0.0 6.4 0.00 0.00 0.00 64 1013.3
20260902203738 33 24 0.0 6.4 0.00 0.00 0.00 62 1013.3
20260902203235 33 120 0.0 4.8 0.00 0.00 0.00 62 1013.3
20260902202732 33 172 0.0 9.7 0.00 0.00 0.00 62 1013.7
20260902202227 32 211 0.0 8.0 0.00 0.00 0.00 63 1013.7
20260902201725 32 237 0.0 4.8 0.00 0.00 0.00 64 1013.7
20260902201221 32 266 0.0 11.3 0.00 0.00 0.00 64 1014.0
20260902200719 32 253 0.0 11.3 0.00 0.00 0.00 65 1014.0
20260902200211 32 218 0.0 11.3 0.00 0.00 0.00 64 1014.0
20260902195708 32 177 0.0 1.6 0.00 0.00 0.00 63 1014.0
20260902195204 32 168 0.0 6.4 0.00 0.00 0.00 63 1014.0
20260902194702 32 197 0.0 8.0 0.00 0.00 0.00 62 1014.3
20260902194115 33 230 0.0 11.3 0.00 0.00 0.00 62 1014.3
20260902193552 32 275 0.0 6.4 0.00 0.00 0.00 62 1014.3
20260902193048 32 328 0.0 6.4 0.00 0.00 0.00 62 1014.3
20260902192545 33 352 0.0 4.8 0.00 0.00 0.00 63 1014.3
20260902192042 33 4 0.0 11.3 0.00 0.00 0.00 63 1014.7
20260902191539 33 4 0.0 11.3 0.00 0.00 0.00 62 1014.7
20260902191034 33 257 0.0 9.7 0.00 0.00 0.00 64 1014.7
20260902190532 33 250 0.0 9.7 0.00 0.00 0.00 63 1014.7
20260902190029 32 238 0.0 8.0 0.00 0.00 0.00 63 1014.6
20260902185527 32 241 0.0 3.2 0.00 0.00 0.00 65 1014.6
20260902185001 32 227 0.0 8.0 0.00 0.00 0.00 62 1014.6
20260902184354 33 191 0.0 8.0 0.00 0.00 0.00 65 1014.7
20260902183850 33 186 0.0 4.8 0.00 0.00 0.00 64 1014.7
20260902183348 33 199 0.0 9.7 0.00 0.00 0.00 64 1014.7
20260902182823 32 181 0.0 9.7 0.00 0.00 0.00 61 1014.6
20260902182259 32 171 0.0 9.7 0.00 0.00 0.00 64 1014.6
20260902181712 32 176 0.0 12.9 0.00 0.00 0.00 65 1014.6
20260902181148 32 179 0.0 12.9 0.00 0.00 0.00 65 1014.6
20260902180644 32 190 0.0 8.0 0.00 0.00 0.00 63 1014.6
20260902180142 33 203 0.0 8.0 0.00 0.00 0.00 65 1014.7
20260902175638 33 219 0.0 8.0 0.00 0.00 0.00 65 1015.0
20260902175114 32 206 0.0 8.0 0.00 0.00 0.00 65 1015.0
20260902174609 32 198 0.0 1.6 0.00 0.00 0.00 67 1015.0
20260902174101 32 177 0.0 1.6 0.00 0.00 0.00 67 1015.0
20260902173557 32 151 0.0 1.6 0.00 0.00 0.00 72 1015.3
20260902173055 32 149 0.0 1.6 0.00 0.00 0.00 70 1015.3
20260902172552 32 94 0.0 8.0 0.00 0.00 0.00 70 1015.3
20260902172049 32 69 0.0 8.0 0.00 0.00 0.00 68 1015.4
20260902171523 32 72 0.0 4.8 0.00 0.00 0.00 68 1015.4
20260902171019 32 49 0.0 6.4 0.00 0.00 0.00 70 1015.3
20260902170511 32 46 0.0 6.4 0.00 0.00 0.00 68 1015.7
20260902170009 32 27 0.0 1.6 0.00 0.00 0.00 67 1015.7
20260902165506 32 22 0.0 4.8 0.00 0.00 0.00 71 1015.7
20260902165002 32 22 0.0 4.8 0.00 0.00 0.00 71 1016.0
20260902164354 31 28 0.0 3.2 0.00 0.00 0.00 71 1016.0
20260902163852 31 355 0.0 1.6 0.00 0.00 0.00 72 1016.0
20260902163349 31 234 0.0 6.4 0.00 0.00 0.00 72 1015.9
20260902162825 31 210 0.0 4.8 0.00 0.00 0.00 73 1015.9
20260902162300 31 203 0.0 1.6 0.00 0.00 0.00 75 1015.9
20260902161758 30 186 0.0 1.6 0.00 0.00 0.00 75 1015.9
20260902161253 30 173 0.0 1.6 0.00 0.00 0.00 74 1015.6
20260902160751 30 184 0.0 3.2 0.00 0.00 0.00 75 1015.6
20260902160248 30 177 0.0 3.2 0.00 0.00 0.00 75 1015.6
20260902155746 30 132 0.0 1.6 0.00 0.00 0.00 77 1015.6
20260902155242 30 90 0.0 1.6 0.00 0.00 0.00 77 1015.9
20260902154740 30 9 0.0 6.4 0.00 0.00 0.00 77 1015.5
20260902154236 30 16 0.0 4.8 0.00 0.00 0.00 79 1015.6
20260902153713 30 191 0.0 4.8 0.00 0.00 0.00 77 1015.5
20260902153148 30 191 0.0 4.8 0.00 0.00 0.00 76 1015.9
20260902152624 30 200 0.0 4.8 0.00 0.00 0.00 77 1015.9
20260902152121 30 223 0.0 3.2 0.00 0.00 0.00 76 1015.5
20260902151618 30 256 0.0 1.6 0.00 0.00 0.00 78 1015.5
20260902151114 30 8 0.0 0.0 0.00 0.00 0.00 77 1015.5
20260902150612 29 19 0.0 0.0 0.00 0.00 0.00 79 1015.5
20260902150105 29 19 0.0 0.0 0.00 0.00 0.00 77 1015.5
20260902145601 28 326 0.0 0.0 0.00 0.00 0.00 80 1015.5
20260902145057 28 252 0.0 1.6 0.00 0.00 0.00 81 1015.5
20260902144553 28 208 0.0 0.0 0.00 0.00 0.00 80 1015.5
20260902144049 28 216 0.0 1.6 0.00 0.00 0.00 80 1015.5
20260902143546 28 224 0.0 0.0 0.00 0.00 0.00 82 1015.5
20260902143043 28 287 0.0 1.6 0.00 0.00 0.00 81 1015.5
20260902142543 28 330 0.0 1.6 0.00 0.00 0.00 83 1015.5
20260902142016 28 9 0.0 0.0 0.00 0.00 0.00 83 1015.5
20260902141452 27 34 0.0 0.0 0.00 0.00 0.00 83 1015.5
20260902140948 27 52 0.0 1.6 0.00 0.00 0.00 84 1015.5
20260902140425 27 70 0.0 0.0 0.00 0.00 0.00 86 1015.4
20260902135900 27 94 0.0 1.6 0.00 0.00 0.00 86 1015.4
20260902135358 26 117 0.0 1.6 0.00 0.00 0.00 87 1015.4
20260902134833 26 122 0.0 0.0 0.00 0.00 0.00 89 1015.4
20260902134330 26 123 0.0 0.0 0.00 0.00 0.00 90 1015.4
20260902133825 26 124 0.0 0.0 0.00 0.00 0.00 90 1015.4
20260902133323 26 125 0.0 0.0 0.00 0.00 0.00 91 1015.4
20260902132757 26 125 0.0 0.0 0.00 0.00 0.00 92 1015.4
20260902132255 25 125 0.0 0.0 0.00 0.00 0.00 92 1015.7
20260902131752 25 126 0.0 0.0 0.00 0.00 0.00 93 1015.7
20260902131228 25 126 0.0 0.0 0.00 0.00 0.00 94 1015.7
20260902130702 25 126 0.0 0.0 0.00 0.00 0.00 94 1015.4
20260902130159 25 126 0.0 0.0 0.00 0.00 0.00 96 1015.3
20260902125656 24 126 0.0 0.0 0.00 0.00 0.00 96 1015.3
20260902125153 24 125 0.0 0.0 0.00 0.00 0.00 97 1015.3
20260902124628 24 124 0.0 0.0 0.00 0.00 0.00 97 1015.6
20260902124104 23 124 0.0 0.0 0.00 0.00 0.00 98 1015.3
20260902123559 23 124 0.0 0.0 0.00 0.00 0.00 99 1015.3
20260902123057 23 124 0.0 0.0 0.00 0.00 0.00 99 1015.6
20260902122511 23 124 0.0 0.0 0.00 0.00 0.00 99 1015.6
20260902122008 23 124 0.0 0.0 0.00 0.00 0.00 99 1015.6
20260902121505 23 124 0.0 0.0 0.00 0.00 0.00 99 1015.6
20260902121003 23 124 0.0 0.0 0.00 0.00 0.00 99 1015.6
20260902120458 23 124 0.0 0.0 0.00 0.00 0.00 100 1015.3
20260902115956 23 124 0.0 0.0 0.00 0.00 0.00 99 1015.6
20260902115453 23 124 0.0 0.0 0.00 0.00 0.00 100 1015.3
20260902114950 23 124 0.0 0.0 0.00 0.00 0.00 100 1015.3
20260902114447 23 124 0.0 0.0 0.00 0.00 0.00 100 1015.3
20260902113945 22 124 0.0 0.0 0.00 0.00 0.00 100 1015.3
20260902113440 22 124 0.0 0.0 0.00 0.00 0.00 100 1015.3
20260902112917 23 124 0.0 0.0 0.00 0.00 0.00 100 1015.3
20260902112413 23 124 0.0 0.0 0.00 0.00 0.00 100 1015.0
20260902111911 23 124 0.0 0.0 0.00 0.00 0.00 100 1015.4
20260902111408 23 124 0.0 0.0 0.00 0.00 0.00 100 1015.4
20260902110844 23 124 0.0 0.0 0.00 0.00 0.00 100 1015.4
20260902110338 23 124 0.0 0.0 0.00 0.00 0.00 100 1015.4
20260902105836 23 124 0.0 0.0 0.00 0.00 0.00 100 1015.4
20260902105333 23 124 0.0 0.0 0.00 0.00 0.00 100 1015.4
20260902104830 23 124 0.0 0.0 0.00 0.00 0.00 100 1015.4
20260902104327 23 124 0.0 0.0 0.00 0.00 0.00 100 1015.4
20260902103825 23 124 0.0 0.0 0.00 0.00 0.00 100 1015.5
20260902103319 23 124 0.0 0.0 0.00 0.00 0.00 100 1015.5
20260902102816 23 124 0.0 0.0 0.00 0.00 0.00 100 1015.1
20260902102313 23 124 0.0 0.0 0.00 0.00 0.00 100 1015.5
20260902101810 22 124 0.0 0.0 0.00 0.00 0.00 100 1015.1
20260902101306 22 124 0.0 0.0 0.00 0.00 0.00 100 1015.1
20260902100804 22 124 0.0 0.0 0.00 0.00 0.00 100 1015.1
20260902100259 22 124 0.0 0.0 0.00 0.00 0.00 100 1015.1
20260902095757 22 124 0.0 0.0 0.00 0.00 0.00 100 1015.1
20260902095253 22 124 0.0 0.0 0.00 0.00 0.00 100 1014.8
20260902094751 22 124 0.0 0.0 0.00 0.00 0.00 100 1014.8
20260902094248 22 124 0.0 0.0 0.00 0.00 0.00 100 1014.8
20260902093746 22 124 0.0 0.0 0.00 0.00 0.00 100 1014.8
20260902093241 22 124 0.0 0.0 0.00 0.00 0.00 100 1014.8
20260902092739 22 124 0.0 0.0 0.00 0.00 0.00 100 1014.8
20260902092236 22 124 0.0 0.0 0.00 0.00 0.00 100 1015.1
20260902091712 22 124 0.0 0.0 0.00 0.00 0.00 100 1014.8
20260902091209 22 124 0.0 0.0 0.00 0.00 0.00 100 1014.8
20260902090707 22 124 0.0 0.0 0.00 0.00 0.00 100 1014.8
20260902090142 22 124 0.0 0.0 0.00 0.00 0.00 100 1014.8
20260902085639 22 124 0.0 0.0 0.00 0.00 0.00 100 1014.8
20260902085114 22 124 0.0 0.0 0.00 0.00 0.00 100 1014.8
20260902084612 22 124 0.0 0.0 0.00 0.00 0.00 100 1014.8
20260902084109 22 124 0.0 0.0 0.00 0.00 0.00 100 1014.8
20260902083606 22 124 0.0 0.0 0.00 0.00 0.00 100 1014.8
20260902083101 22 124 0.0 0.0 0.00 0.00 0.00 100 1014.8
20260902082559 22 124 0.0 0.0 0.00 0.00 0.00 100 1014.8
20260902082055 22 124 0.0 0.0 0.00 0.00 0.00 100 1014.8
20260902081553 22 124 0.0 0.0 0.00 0.00 0.00 100 1014.8
20260902081050 22 124 0.0 0.0 0.00 0.00 0.00 100 1014.8
20260902080547 22 124 0.0 0.0 0.00 0.00 0.00 100 1014.8
20260902080043 22 124 0.0 0.0 0.00 0.00 0.00 100 1014.8
20260902075520 22 124 0.0 0.0 0.00 0.00 0.00 100 1014.8
20260902075015 22 124 0.0 0.0 0.00 0.00 0.00 100 1014.8
20260902074430 22 124 0.0 0.0 0.00 0.00 0.00 100 1014.8
20260902073905 22 124 0.0 0.0 0.00 0.00 0.00 100 1014.8